Location: Mason Neck State Park
(38.6428°N, 77.1981°W)
Time: 12:18:25
(UTC-05:00)

ISS - Visible Passes

Search period start: 24 February 2017 00:00
Search period end: 06 March 2017 00:00
Orbit: 399 x 408 km, 51.6° (Epoch: 24 February)

Date Brightness Start Highest point End Pass type
(mag) Time Alt. Az. Time Alt. Az. Time Alt. Az.
27 Feb -0.6 06:13:52 10° S 06:16:25 21° SE 06:18:59 10° E visible
28 Feb 0.0 05:23:26 10° SE 05:24:05 10° SE 05:24:43 10° ESE visible
01 Mar -2.5 06:04:20 10° SW 06:07:32 53° SE 06:10:46 10° ENE visible
02 Mar -1.3 05:12:37 12° S 05:15:04 26° SE 05:17:52 10° ENE visible
03 Mar -0.4 04:22:49 13° SE 04:22:49 13° SE 04:24:17 10° E visible
03 Mar -3.2 05:55:30 10° WSW 05:58:45 58° NW 06:02:01 10° NE visible
04 Mar -3.1 05:05:28 50° SSW 05:06:08 68° SE 05:09:25 10° NE visible
05 Mar -0.6 04:15:17 20° E 04:15:17 20° E 04:16:34 10° ENE visible
05 Mar -2.1 05:47:56 15° W 05:50:04 27° NNW 05:52:57 10° NNE visible
